TimeCST,TemperatureF,Dew PointF,Humidity,Sea Level PressureIn,VisibilityMPH,Wind Direction,Wind SpeedMPH,Gust SpeedMPH,PrecipitationIn,Events,Conditions,WindDirDegrees,DateUTC
12:51 AM,42.8,41.0,93,30.02,2.5,Calm,Calm,-,0.07,Rain,Rain,0,2013-01-01 06:51:00
12:54 AM,43.0,41.0,93,30.02,2.5,Calm,Calm,-,0.07,Rain,Rain,0,2013-01-01 06:54:00
1:21 AM,44.6,42.8,93,30.02,1.0,NNE,3.5,-,0.03,Rain,Rain,30,2013-01-01 07:21:00
1:31 AM,42.8,42.8,100,30.02,0.5,NE,3.5,-,0.04,Fog-Rain,Light Rain,50,2013-01-01 07:31:00
1:54 AM,42.8,42.8,100,30.04,0.5,Calm,Calm,-,N/A,Fog-Rain,Light Rain,0,2013-01-01 07:54:00
2:54 AM,43.0,42.1,97,30.04,0.8,Calm,Calm,-,0.04,Rain,Rain,0,2013-01-01 08:54:00
3:38 AM,44.6,42.8,93,30.03,1.0,NE,3.5,-,0.04,Rain,Light Rain,50,2013-01-01 09:38:00
3:54 AM,43.0,42.1,97,30.04,1.2,North,3.5,-,0.05,Rain,Light Rain,350,2013-01-01 09:54:00
4:20 AM,44.6,42.8,93,30.04,2.0,NW,3.5,-,0.01,Rain,Light Rain,320,2013-01-01 10:20:00
4:35 AM,44.6,42.8,93,30.05,1.5,NNW,6.9,-,0.02,Rain,Light Rain,330,2013-01-01 10:35:00
4:54 AM,42.8,42.8,100,30.05,1.5,Variable,6.9,-,N/A,Rain,Light Rain,0,2013-01-01 10:54:00
5:48 AM,42.8,39.2,87,30.04,3.0,North,6.9,-,0.03,Rain,Light Rain,360,2013-01-01 11:48:00
5:54 AM,42.8,39.2,87,30.05,3.0,North,8.1,-,N/A,Rain,Rain,10,2013-01-01 11:54:00
6:34 AM,42.8,39.2,87,30.02,6.0,NE,8.1,-,0.02,Rain,Light Rain,40,2013-01-01 12:34:00
6:54 AM,42.1,39.9,92,30.05,6.0,North,8.1,-,0.02,Rain,Light Rain,360,2013-01-01 12:54:00
7:54 AM,42.1,39.0,89,30.08,6.0,North,8.1,-,0.00,,Overcast,350,2013-01-01 13:54:00
8:54 AM,41.0,39.0,93,30.09,7.0,NNE,9.2,-,N/A,,Overcast,20,2013-01-01 14:54:00
9:54 AM,42.1,39.0,89,30.12,9.0,North,10.4,-,N/A,,Overcast,10,2013-01-01 15:54:00
10:35 AM,42.8,39.2,87,30.12,10.0,NNE,8.1,-,N/A,,Overcast,20,2013-01-01 16:35:00
10:39 AM,42.8,39.2,87,30.11,10.0,North,9.2,-,N/A,,Overcast,10,2013-01-01 16:39:00
10:54 AM,42.1,39.0,89,30.13,10.0,North,8.1,-,N/A,,Overcast,360,2013-01-01 16:54:00
11:10 AM,42.8,39.2,87,30.14,10.0,North,9.2,-,N/A,,Overcast,10,2013-01-01 17:10:00
11:54 AM,42.8,39.2,87,30.11,10.0,North,9.2,-,N/A,,Overcast,10,2013-01-01 17:54:00
12:46 PM,41.0,37.4,87,30.09,6.0,North,8.1,-,N/A,,Overcast,350,2013-01-01 18:46:00
12:54 PM,41.0,37.9,89,30.08,6.0,North,8.1,-,N/A,,Overcast,10,2013-01-01 18:54:00
1:54 PM,41.0,37.9,89,30.07,8.0,North,6.9,-,N/A,,Overcast,10,2013-01-01 19:54:00
2:54 PM,41.0,37.9,89,30.08,9.0,NNE,5.8,-,N/A,,Overcast,30,2013-01-01 20:54:00
3:54 PM,39.9,37.0,89,30.10,4.0,NNE,9.2,-,N/A,,Overcast,30,2013-01-01 21:54:00
4:38 PM,39.2,35.6,87,30.10,2.0,North,9.2,-,N/A,,Overcast,360,2013-01-01 22:38:00
4:54 PM,37.9,35.1,89,30.13,2.0,North,11.5,-,N/A,,Overcast,360,2013-01-01 22:54:00
5:27 PM,35.6,33.8,93,30.16,1.0,North,12.7,20.7,N/A,,Overcast,360,2013-01-01 23:27:00
5:42 PM,35.6,33.8,93,30.16,1.0,North,13.8,-,N/A,,Overcast,360,2013-01-01 23:42:00
5:51 PM,35.6,33.8,93,30.16,2.0,North,16.1,-,N/A,,Overcast,10,2013-01-01 23:51:00
5:54 PM,36.0,33.1,89,30.17,2.0,North,16.1,21.9,N/A,,Overcast,10,2013-01-01 23:54:00
6:04 PM,35.6,33.8,93,30.17,2.0,North,11.5,-,N/A,,Overcast,350,2013-01-02 00:04:00
6:09 PM,35.6,33.8,93,30.17,5.0,North,12.7,-,N/A,,Overcast,10,2013-01-02 00:09:00
6:54 PM,36.0,32.0,86,30.18,7.0,North,6.9,-,N/A,,Overcast,10,2013-01-02 00:54:00
7:54 PM,35.1,30.0,82,30.19,7.0,North,11.5,-,N/A,,Overcast,10,2013-01-02 01:54:00
8:13 PM,33.8,30.2,87,30.18,8.0,North,11.5,-,N/A,,Overcast,360,2013-01-02 02:13:00
8:32 PM,33.8,28.4,81,30.19,8.0,North,8.1,-,N/A,,Overcast,360,2013-01-02 02:32:00
8:39 PM,33.8,28.4,81,30.19,10.0,North,11.5,-,N/A,,Overcast,10,2013-01-02 02:39:00
8:54 PM,33.1,28.0,82,30.19,10.0,North,10.4,-,N/A,,Overcast,10,2013-01-02 02:54:00
9:07 PM,33.8,28.4,81,30.18,10.0,North,5.8,-,N/A,,Overcast,10,2013-01-02 03:07:00
9:54 PM,32.0,27.0,82,30.21,10.0,North,9.2,-,N/A,,Overcast,360,2013-01-02 03:54:00
10:08 PM,32.0,26.6,80,30.20,10.0,North,9.2,-,N/A,,Overcast,10,2013-01-02 04:08:00
10:54 PM,32.0,26.1,79,30.22,10.0,North,9.2,-,N/A,,Overcast,10,2013-01-02 04:54:00
11:54 PM,30.0,25.0,82,30.21,10.0,NNE,8.1,-,N/A,,Overcast,20,2013-01-02 05:54:00